DECAYED

IRIDIUM 33 DEB, 34702 (Decayed)

Orbit data source: Space-Track

IRIDIUM 33 DEB, 34702 was space debris in LEO originally from a launch on Sun, 14 Sep 1997 UTC launched from the Tyuratam Missile And Space Complex (TTMTR). The debris from Iridium 33, an American commercial communications satellite, has been tracked extensively since its accidental collision with the defunct Russian satellite Cosmos 2251 in 2009. This event, occurring at high speed in low Earth orbit (LEO), generated thousands of pieces of space debris, significantly increasing the risk of further collisions. The Iridium 33 debris cloud has impacted space traffic management and orbital debris mitigation strategies, making it a subject of ongoing study in space situational awareness.

Loading next visibility...
Identifier
34702, 1997-051KZ
Orbit
Decayed
Country
Flag of USUS
Related business
Manufacturer
Unknown
Mission
Decayed spacecraft
Bus & Motor
Unknown
Mass
Unknown
Launch date (UTC)
1997-09-14 (28 years ago)
Launch vehicle
Unknown
Launch site
Tyuratam Missile And Space Complex (TTMTR)
Object type
Payload
Rocket body
Debris
Shape & HBR
Unknown shape, 0.1 m
Radar Cross Section
Small (<0.1 m²)

Expand to show TLE details & history
Last TLE update: 6 months ago

TLE from 6 months ago
0 IRIDIUM 33 DEB
1 34702U 97051KZ  25167.44726676  .01777256  17821-2  47055-2 0  9990
2 34702  86.2575 338.7452 0012106 261.5561  98.4350 15.95010399868057
Epoch: 2025-06-16T10:44Z
TLE epoch observation values (Epoch: 2025-06-16T10:44:03.848Z)
Latitude
-0.00004°
Longitude
-87.22871°
Altitude
292.752 km
Speed
7.731 km/s
True Right ascension
22h 34m 58s
True Declination
0° 00' 00"
Sunlit
Object was in daylight at epoch
Visualization orbit readout
Latitude
Unknown
Longitude
Unknown
Altitude
Unknown
Speed
Unknown
Apparent Right ascension
Unknown
Apparent Declination
Unknown
Sunlit
N/A
Visualization observer readout
Local Sidereal Time
08:52:46
Azimuth
Unknown
Elevation
Unknown
Doppler factor
Unknown
Orbital elements
Apogee altitude
293.096 km
Perigee altitude
276.963 km
Semi-major axis
6,663.167 km
Eccentricity
0.00121
Inclination
86.2575°
RAAN
338.7452°
Arg. of periapsis
261.5561°
True anomaly
98.57219°
Mean anomaly
98.435°
Eccentric anomaly
98.5036°
Mean motion
3.99045 °/min
Orbital period
90.22 mins
BSTAR
0.0047055

Documentation

Showing up to 5 results
|